Location: Heisede
(52.2582°N, 9.8523°E)
Time: 23:43:28
(UTC+00:00)

SJ 16-02 - Pass Details

Date: 13 January 2026
Orbit: 582 x 594 km, 75.0° (Epoch: 18 February)

Event Time Altitude Azimuth Distance (km) Brightness Sun altitude
Rises 06:07:14 0° 166° (SSE) 2,794 5.2 -11.3°
Reaches altitude 10° 06:09:45 10° 152° (SSE) 1,899 4.6 -10.9°
Maximum altitude 06:13:06 23° 100° (E) 1,252 4.0 -10.4°
Drops below altitude 10° 06:16:29 10° 47° (NE) 1,913 4.2 -9.9°
Sets 06:19:02 0° 33° (NNE) 2,820 4.9 -9.6°
